Location: Poughquag
(41.6090°N, 73.6820°W)
Time: 03:03:19
(UTC-04:00)

Envisat - Visible Passes

Search period start: 08 October 2024 00:00
Search period end: 18 October 2024 00:00
Orbit: 762 x 764 km, 98.3° (Epoch: 07 October)

Date Brightness Start Highest point End Pass type
(mag) Time Alt. Az. Time Alt. Az. Time Alt. Az.
08 Oct 4.4 04:00:14 10° NNE 04:02:53 31° NNE 04:02:53 31° NNE visible
08 Oct 4.8 05:41:05 10° NNW 05:43:01 14° NW 05:43:01 14° NW visible
09 Oct 5.4 03:23:08 10° NNE 03:24:50 19° NE 03:24:50 19° NE visible
09 Oct 4.3 05:02:15 10° N 05:04:59 24° NW 05:04:59 24° NW visible
10 Oct 4.3 04:24:17 10° N 04:26:55 31° N 04:26:55 31° N visible
11 Oct 4.9 03:46:49 10° NNE 03:48:52 24° NNE 03:48:52 24° NNE visible
11 Oct 4.7 05:26:57 10° NNW 05:29:00 17° NW 05:29:00 17° NW visible
12 Oct 5.8 03:09:58 10° NE 03:10:48 14° NE 03:10:48 14° NE visible
12 Oct 4.4 04:48:32 10° N 04:50:57 25° NNW 04:50:57 25° NNW visible
13 Oct 4.7 04:10:45 10° NNE 04:12:53 26° N 04:12:53 26° N visible
13 Oct 5.0 05:52:36 10° NW 05:53:01 11° NW 05:53:01 11° NW visible
14 Oct 5.4 03:33:28 10° NNE 03:34:49 18° NE 03:34:49 18° NE visible
14 Oct 4.7 05:13:01 10° NNW 05:14:57 18° NNW 05:14:57 18° NNW visible
15 Oct 4.6 04:34:52 10° N 04:36:53 23° N 04:36:53 23° N visible
16 Oct 5.1 03:57:15 10° NNE 03:58:49 20° NNE 03:58:49 20° NNE visible
16 Oct 5.0 05:37:57 10° NNW 05:38:57 13° NW 05:38:57 13° NW visible
17 Oct 5.8 03:20:11 10° NNE 03:20:45 13° NE 03:20:45 13° NE visible
17 Oct 4.7 04:59:11 10° N 05:00:53 19° NNW 05:00:53 19° NNW visible
